EHI
16 15 14 13 13 15 15 15 18 21 20 18 17 17 18 16 13 12 13 11 9 9 9 9 9 9 9 10 11 12 13 11 9 9 11 13 12 10 8 6 4 3 4
14 14 14 13 14 15 15 16 19 21 20 20 20 19 18 15 13 12 11 10 9 9 9 8 8 8 9 10 10 10 11 11 10 10 11 12 12 10 9 7 3 2 3
10 11 14 14 14 15 17 18 19 20 20 22 23 21 18 16 14 12 11 9 8 8 7 7 7 7 8 8 7 7 8 10 12 12 11 10 10 9 9 7 4 2 2
10 11 13 13 14 16 19 20 19 19 20 22 23 22 20 18 16 14 12 11 10 8 7 6 7 7 7 6 5 5 7 9 12 13 11 9 8 8 8 6 3 2 1
12 13 13 13 15 18 19 19 19 19 19 20 21 21 19 17 15 13 12 12 12 10 9 8 8 8 7 5 4 4 6 8 11 12 11 9 7 7 7 5 3 1 1
17 16 15 15 17 19 19 18 19 20 19 20 20 19 17 14 10 9 9 10 11 10 10 9 8 7 7 5 4 2 4 6 9 10 9 8 7 6 6 6 4 2 2
20 18 17 17 17 17 17 18 19 20 20 21 21 19 15 11 7 5 6 7 8 9 10 10 8 7 7 7 5 3 4 6 7 8 8 7 6 7 7 7 7 6 5
20 17 15 16 17 18 19 19 19 20 20 20 19 17 13 9 5 2 3 5 6 6 8 9 8 8 8 8 8 7 7 7 6 6 7 6 5 6 7 8 9 8 7
17 17 16 16 17 18 20 20 19 19 18 16 14 12 10 7 3 1 1 4 6 6 6 6 6 5 5 6 7 9 9 8 5 4 4 4 4 4 5 7 8 7 7
15 16 17 16 16 15 17 18 18 16 14 12 10 9 7 5 3 1 1 4 6 6 4 3 2 2 2 3 5 8 8 6 4 4 4 4 4 4 4 5 6 6 6
13 13 14 15 14 13 14 16 16 13 11 10 10 8 7 5 3 1 1 3 5 4 2 1 1 1 0 1 3 5 4 3 4 5 5 5 5 5 4 5 6 6 6
11 10 10 12 14 13 13 15 15 11 10 10 10 9 8 7 5 2 0 1 3 3 2 1 0 0 0 0 1 1 1 1 3 4 4 5 5 4 4 4 4 5 6
11 10 9 10 11 12 12 12 12 11 9 8 9 10 10 8 6 3 1 0 1 3 2 1 0 0 0 0 0 0 0 1 3 3 3 4 4 3 3 3 4 4 4
11 11 10 8 8 10 10 10 10 9 7 7 8 9 9 8 6 4 2 2 2 2 3 2 2 1 1 1 1 1 1 2 3 3 3 3 3 3 3 4 4 4 3
12 12 10 8 7 6 7 8 8 7 6 6 6 7 8 6 4 3 3 3 2 3 4 5 5 4 3 3 2 2 3 3 3 3 3 3 3 3 3 3 4 3 3
13 10 9 7 6 4 4 7 7 5 3 3 3 4 4 3 1 1 1 1 1 2 4 6 7 6 5 4 3 3 3 3 3 3 3 3 3 3 3 3 3 3 4
13 9 6 6 5 4 3 5 7 5 3 2 1 1 1 1 0 0 0 0 0 1 3 6 8 7 5 3 3 3 3 3 3 3 3 3 3 3 2 2 3 4 5
13 9 5 5 5 5 4 4 6 7 6 4 2 1 0 0 0 0 0 0 1 2 5 7 8 8 5 3 3 3 3 3 3 3 3 3 3 1 1 1 1 3 5
9 7 5 4 5 5 5 4 6 7 8 7 5 3 1 1 1 0 0 1 2 4 6 6 7 7 5 3 3 3 3 3 3 3 3 3 3 1 0 0 1 2 3
5 4 3 3 4 5 6 6 6 8 9 9 8 6 4 3 2 2 1 1 3 4 5 4 5 5 4 3 3 3 3 3 3 3 3 3 3 2 1 0 0 1 1
3 1 1 1 2 3 5 6 6 7 8 9 9 7 4 4 5 4 4 3 4 4 4 3 3 4 3 3 3 3 3 3 3 3 3 3 3 2 1 0 0 0 0
1 0 0 1 1 2 3 4 5 6 7 8 9 8 5 5 7 7 6 6 5 4 3 3 3 3 3 3 3 3 3 3 3 3 3 3 2 1 0 0 0 0 0
0 1 1 2 2 2 3 3 4 5 6 8 9 9 7 7 9 9 8 8 7 6 4 4 3 3 3 3 3 3 3 3 3 3 2 1 1 0 0 0 0 0 0
2 3 3 4 3 3 3 3 3 4 7 9 10 10 10 10 10 11 10 9 8 6 5 4 3 3 2 2 2 2 2 2 2 1 1 0 0 0 0 0 0 0 0
5 5 6 5 4 4 4 4 4 6 8 10 11 11 11 11 10 10 10 9 6 5 4 4 3 1 1 1 1 1 1 1 1 0 0 0 0 0 0 0 0 0 0
6 6 6 6 6 5 5 5 6 7 9 11 12 11 11 11 10 10 9 7 5 4 3 3 2 1 0 0 0 0 0 0 0 0 0 0 0 0 0 0 0 0 0
Wind_Speed
5 4 4 4 4 4 4 4 3 3 3 3 2 2 2 2 2 3 3 2 2 2 3 3 3 2 2 2 2 2 2 3 3 2 1 1 0 2 0 1 2 2 4
5 5 5 4 4 5 4 3 3 3 3 3 2 3 3 2 2 2 2 2 2 3 3 3 3 2 2 3 2 2 2 2 3 3 2 1 1 1 1 2 1 2 2
5 6 5 5 5 5 4 3 3 3 3 2 2 2 2 2 2 2 2 2 2 2 2 3 3 3 3 2 3 2 2 2 2 3 2 1 1 1 2 2 1 1 2
5 6 5 6 5 5 4 4 4 3 3 3 3 3 2 2 2 2 2 2 2 2 2 3 3 3 3 3 3 3 3 3 2 3 2 2 2 1 2 2 2 2 2
5 6 5 5 5 5 4 4 4 4 4 3 3 3 3 3 2 2 3 2 2 3 3 3 2 2 2 3 3 2 3 3 3 3 3 2 2 2 2 2 2 2 2
6 6 5 5 5 5 5 4 4 4 3 3 4 3 3 1 1 1 4 3 3 3 3 3 3 4 4 4 3 4 4 5 4 4 3 3 3 3 2 3 3 3 2
5 5 5 5 5 5 5 4 4 4 4 4 4 4 3 2 2 3 3 4 4 4 3 4 4 1 2 3 4 7 6 6 6 6 5 5 4 3 4 5 3 4 4
5 5 5 5 5 5 4 4 4 4 3 3 3 4 3 2 3 3 4 6 5 4 4 4 4 3 3 3 4 4 5 5 5 6 4 5 5 3 4 5 5 5 4
5 5 5 5 4 4 4 4 4 3 3 3 3 3 3 2 2 3 4 5 4 4 4 4 4 3 1 3 5 5 5 4 4 4 4 4 3 4 5 5 4 4 3
3 3 3 4 4 4 4 4 3 3 3 3 3 3 3 2 2 2 4 4 4 4 3 3 3 2 2 3 5 5 5 4 4 3 4 6 6 6 7 6 5 5 4
1 2 2 3 3 3 3 3 3 4 3 3 3 3 3 2 3 3 3 4 3 4 3 2 1 3 3 3 5 5 4 5 5 5 4 4 4 4 4 5 4 4 5
1 2 2 2 3 2 3 3 3 3 3 3 3 3 2 3 2 3 4 4 5 4 3 2 0 1 3 4 4 3 4 6 5 4 4 4 3 3 2 3 3 4 4
1 1 2 2 2 2 3 3 4 4 3 3 3 3 2 2 3 5 5 5 4 4 2 1 2 4 4 5 5 5 6 5 4 4 4 3 3 3 2 2 3 2 3
1 1 2 2 2 2 2 3 3 3 3 3 3 3 2 2 1 2 3 4 5 5 3 3 5 6 6 4 3 4 4 3 4 4 3 3 2 2 2 2 2 2 2
1 2 2 2 2 2 2 1 2 1 2 3 2 2 2 2 1 2 3 2 2 1 2 3 3 3 3 3 2 2 2 2 3 3 3 3 2 2 2 1 1 2 2
2 2 2 2 2 2 2 2 1 1 1 1 2 4 2 1 0 1 2 3 3 2 3 3 2 2 3 2 2 2 2 2 2 3 3 3 2 2 2 2 2 2 2
2 2 2 2 2 2 2 2 2 3 4 3 4 4 3 2 2 3 3 3 3 4 4 3 2 2 2 2 2 2 2 1 2 3 2 2 2 2 2 2 2 2 2
3 2 3 3 3 3 3 3 3 2 2 2 4 5 5 4 3 3 4 3 3 4 4 3 2 2 2 2 2 2 2 2 2 2 2 2 2 2 2 2 2 2 2
3 2 2 3 3 3 3 3 3 3 3 2 1 3 6 5 5 4 5 4 3 3 3 3 2 2 2 3 2 2 3 3 2 3 2 2 2 2 2 2 2 2 3
2 2 3 3 3 3 3 3 3 3 3 2 2 2 2 2 2 3 4 3 3 3 3 3 3 3 3 2 2 2 3 3 2 3 3 2 2 3 3 3 3 3 3
2 2 4 4 4 3 3 3 3 3 3 3 3 1 1 3 3 3 2 2 3 3 3 3 3 3 3 2 2 3 4 3 3 3 3 3 3 3 3 3 3 3 3
3 3 3 3 2 2 2 3 3 4 4 4 3 2 5 4 3 2 2 2 2 3 3 3 3 2 2 2 3 3 3 3 3 3 3 3 3 3 3 3 3 3 3
4 4 3 3 3 3 3 3 3 4 4 4 3 3 3 3 3 3 3 2 2 2 2 2 2 2 2 2 2 3 3 3 3 4 4 4 4 4 4 4 4 3 3
3 4 3 3 3 3 3 3 4 4 4 3 3 3 2 2 3 3 2 2 2 2 2 2 2 2 2 2 2 2 1 3 5 4 6 5 5 4 4 3 4 4 4
3 4 4 4 3 3 4 4 4 4 4 3 3 3 2 2 2 2 2 2 2 2 3 2 2 2 3 3 3 1 0 2 4 5 5 5 5 4 4 4 4 4 4
4 4 4 3 3 4 4 4 4 4 4 3 3 2 2 2 2 2 2 2 2 2 2 2 2 2 3 3 2 0 1 2 3 4 5 4 4 4 4 4 5 5 4
Wind_Direction
194 200 207 197 194 201 210 218 219 226 231 232 230 225 222 222 231 237 251 231 232 245 255 246 255 279 285 277 263 259 262 265 268 275 284 100 278 299 5 252 207 204 152
189 197 201 197 198 200 200 211 216 217 222 219 217 212 216 215 233 242 255 243 234 241 249 249 254 248 258 276 278 272 271 264 265 273 278 236 220 249 250 255 228 218 199
191 199 198 199 201 208 202 202 210 209 217 214 208 212 223 225 232 242 254 252 245 250 253 253 255 258 264 267 267 269 265 253 254 250 254 249 232 247 250 242 241 261 236
197 205 201 205 208 212 209 205 209 210 211 214 212 216 228 230 239 249 243 241 242 246 245 251 257 259 261 262 256 259 269 271 250 253 240 234 216 214 242 235 223 220 249
199 208 206 209 206 212 214 213 212 215 211 209 219 223 232 232 242 254 254 238 247 254 245 241 237 244 289 283 292 284 272 269 261 256 246 244 236 228 239 245 253 246 232
201 205 203 208 204 208 212 212 208 207 209 213 221 227 234 238 105 241 266 251 240 245 250 250 225 208 205 215 246 276 285 273 278 271 261 257 249 246 254 260 259 259 256
203 202 203 207 205 206 215 209 209 208 205 213 222 231 231 194 177 213 247 261 255 256 252 256 267 262 242 253 222 223 238 243 255 271 277 279 268 258 261 259 260 270 276
204 203 204 207 209 203 209 211 212 216 213 217 223 226 227 197 178 208 247 248 252 251 248 249 258 261 279 277 264 256 254 247 244 246 259 267 275 283 261 256 252 251 255
205 205 207 207 207 203 207 207 208 211 214 221 221 224 224 199 174 202 248 248 243 247 249 251 251 245 228 270 257 255 260 258 241 231 253 258 274 271 275 264 251 250 256
210 209 205 206 208 204 205 205 200 207 218 230 224 230 228 218 163 183 251 255 250 252 240 227 211 241 244 261 257 259 260 268 273 244 229 230 233 225 225 246 256 256 265
205 207 208 215 214 211 209 204 206 214 214 230 231 232 225 214 170 170 232 265 270 265 262 250 190 163 217 247 263 263 272 280 270 261 251 245 236 228 224 232 250 259 263
203 200 200 209 232 208 202 204 212 222 213 217 228 242 224 199 193 179 204 241 284 269 272 279 348 160 228 243 248 258 270 268 260 258 258 258 256 249 246 248 250 267 277
183 197 201 203 219 231 217 211 215 215 236 235 230 240 235 216 174 179 198 211 242 255 273 320 252 230 233 229 215 229 244 248 255 260 267 274 278 277 262 244 235 236 247
209 225 210 208 220 206 235 235 242 242 239 238 236 238 238 223 235 209 204 198 206 221 231 201 208 221 232 242 225 218 235 267 276 274 282 282 278 266 253 243 240 240 257
241 247 239 228 219 218 214 252 264 270 297 271 272 265 265 260 347 359 295 274 268 267 257 235 232 220 227 227 236 253 263 258 265 280 282 280 274 270 274 272 267 268 271
243 248 254 239 211 226 208 190 140 249 122 205 267 289 297 329 239 240 250 269 276 263 245 240 249 258 260 261 258 258 262 274 283 284 282 279 279 278 279 277 270 263 259
253 262 268 259 238 237 236 234 210 184 191 207 220 229 244 258 243 234 231 230 236 217 231 247 253 254 261 269 275 277 284 287 279 279 287 290 286 278 278 275 269 268 269
254 239 251 257 255 250 244 246 249 246 220 202 190 193 197 204 217 216 206 202 212 214 241 250 256 259 261 269 275 283 288 281 268 275 281 284 287 284 281 276 270 273 270
261 263 260 265 257 248 252 251 251 255 261 255 223 166 177 184 191 201 197 231 243 236 239 246 254 254 257 266 273 273 270 268 273 273 271 275 277 275 273 274 270 265 264
249 243 262 267 258 247 244 248 248 249 258 260 257 252 180 195 211 191 203 235 252 253 250 248 251 251 251 254 258 265 267 265 263 263 267 265 264 266 267 268 270 259 256
265 223 218 245 245 245 253 260 260 258 261 262 261 251 233 243 237 232 228 220 233 248 250 253 252 247 239 242 249 252 262 266 261 264 265 260 260 264 268 268 270 271 273
257 255 243 236 235 241 251 260 262 255 252 255 254 200 187 235 244 239 234 227 229 238 245 241 240 241 249 250 254 256 256 265 269 262 259 255 250 251 255 257 257 259 261
248 238 234 231 226 213 233 250 263 268 267 260 254 240 210 229 237 234 229 228 232 242 247 237 236 233 238 240 246 255 262 266 267 263 259 255 251 249 249 248 251 258 264
247 238 237 235 232 236 239 244 252 258 260 259 255 255 248 240 244 239 238 231 231 238 243 238 234 236 249 262 249 239 253 283 276 258 254 255 253 253 251 250 253 258 264
249 243 239 237 236 239 242 244 250 257 259 257 256 256 254 251 244 234 234 228 231 239 241 238 240 238 240 247 258 269 52 279 276 278 251 248 250 252 256 252 250 253 259
252 249 245 241 240 242 245 245 245 250 254 253 255 261 265 262 257 251 250 239 232 232 234 231 237 246 252 245 240 204 181 234 253 272 266 248 245 248 257 258 256 255 252